RH
67 73 80 83 81 76 78 71 86 81 78 68 68 65 69 68 73 78 87 76 71 63 63 63 63 63 63 64 63 62 63 63 63 63 63 63 64 63 63 62 62 61 60
68 74 80 82 85 83 75 70 81 81 80 76 72 72 71 73 76 78 80 84 73 68 63 63 63 63 62 62 61 61 62 63 64 64 64 63 63 62 62 62 62 61 61
67 72 79 81 82 83 79 71 80 81 82 76 79 77 72 70 72 74 79 76 77 73 64 62 62 62 61 61 60 59 60 62 62 63 63 63 63 62 62 61 61 61 61
65 69 74 79 82 77 72 67 76 83 86 82 81 78 75 66 61 66 70 71 72 71 67 61 61 58 59 60 58 58 59 60 61 63 62 62 62 62 61 61 61 61 61
71 69 80 82 78 74 69 69 76 76 81 84 74 76 68 63 56 50 55 55 62 70 71 61 60 60 58 58 57 57 56 58 60 61 62 62 62 61 61 61 61 61 61
93 86 81 82 77 73 71 71 72 72 75 67 49 53 58 55 50 51 51 48 52 56 69 63 70 69 56 57 56 56 54 55 58 59 59 60 62 62 62 61 61 61 62
94 89 89 80 75 71 71 66 68 69 69 52 64 58 52 47 47 46 42 47 46 43 45 53 60 68 71 54 54 53 52 52 55 56 58 59 60 61 61 62 62 61 60
94 92 90 79 73 70 65 64 65 68 57 53 62 69 63 51 52 44 46 40 41 46 45 43 42 42 66 70 66 50 48 52 53 54 55 57 58 60 61 61 60 59 60
93 92 88 81 72 65 64 63 59 53 55 56 44 64 63 54 61 59 50 50 43 51 52 48 44 42 44 59 61 51 44 49 52 52 54 57 58 60 60 59 58 58 58
92 89 85 80 69 63 62 62 54 52 53 52 63 49 61 60 61 62 60 57 51 46 51 60 53 49 47 56 54 59 53 47 50 52 53 56 58 58 58 57 58 58 60
93 92 88 81 64 60 60 58 56 56 52 63 65 65 62 62 65 68 70 67 62 60 58 61 61 60 51 57 63 57 51 50 48 51 53 55 57 57 57 58 59 59 60
95 90 87 82 61 56 58 57 55 55 53 60 66 65 66 57 60 74 70 68 61 59 61 62 59 62 64 64 59 58 56 53 50 50 53 54 56 56 56 57 59 60 60
96 92 86 82 66 59 57 54 56 59 57 54 65 61 63 64 59 65 68 68 66 57 61 63 64 64 56 70 68 64 60 57 56 53 52 56 56 56 56 58 60 61 59
92 88 83 74 62 56 56 51 52 57 56 66 64 62 68 60 57 60 67 71 70 62 62 54 65 66 69 71 69 68 64 59 59 58 53 57 57 57 58 59 62 60 59
89 88 83 74 60 53 51 47 49 48 50 66 64 65 64 61 59 58 64 75 78 78 59 57 58 65 69 70 67 75 73 64 57 59 58 58 61 60 59 60 61 59 60
87 89 85 79 71 60 52 48 46 45 50 64 65 65 60 60 60 63 63 57 69 87 89 63 57 60 60 51 66 68 68 68 57 56 59 59 60 60 59 61 60 60 61
88 89 86 80 74 65 56 50 46 44 45 55 62 60 58 56 63 65 66 59 58 68 93 58 59 58 59 59 61 73 70 69 70 58 56 52 55 58 61 59 60 61 60
88 87 81 75 67 59 51 47 45 42 41 50 55 63 60 47 59 62 65 58 60 61 81 70 57 61 61 62 58 70 59 50 60 53 49 50 54 58 54 57 58 56 57
90 86 79 73 63 58 51 44 40 40 39 42 47 50 52 51 60 66 67 63 63 52 64 82 70 68 65 66 64 63 65 69 54 57 52 52 47 49 54 57 53 55 54
87 85 80 77 73 62 57 47 39 40 39 40 46 47 49 48 48 57 58 63 62 70 66 71 75 69 70 68 70 76 76 76 74 52 52 55 52 54 53 52 53 54 53
84 78 76 73 73 61 48 42 40 40 42 46 53 47 50 52 58 56 54 66 73 77 74 84 77 76 72 77 73 77 77 79 76 74 72 67 66 66 61 58 55 53 53
88 86 85 83 80 71 69 63 47 45 45 48 53 53 52 65 64 69 67 68 62 73 77 85 92 79 73 68 75 78 90 93 84 77 88 77 69 66 68 62 54 52 57
94 91 85 78 74 66 72 65 62 50 52 53 57 58 57 49 66 56 74 74 72 69 69 70 76 74 70 68 75 83 83 94 92 86 86 90 79 72 69 47 54 56 57
97 96 92 88 86 76 83 74 70 62 59 61 62 55 55 59 71 60 61 72 72 70 67 62 64 65 63 66 72 75 81 80 76 75 90 88 85 88 72 53 55 57 54
97 96 94 95 92 90 91 84 77 79 72 72 67 61 62 64 73 71 64 74 71 71 68 67 64 64 70 71 72 74 81 84 89 88 87 95 94 94 82 75 66 54 52
97 96 97 93 93 94 95 93 89 87 87 82 79 78 86 82 82 79 66 74 80 75 75 77 80 76 75 73 66 67 74 89 90 92 88 93 96 95 88 78 63 56 63
Wind_Speed
11 11 9 8 8 9 9 9 5 5 5 6 5 6 8 9 8 4 3 11 12 14 14 14 14 14 12 13 13 13 13 14 14 12 13 13 14 14 14 14 13 13 14
12 12 10 9 8 9 9 8 6 5 5 5 6 7 8 8 8 6 4 5 11 12 13 14 13 13 12 12 12 11 12 12 13 12 11 12 12 12 13 13 13 13 13
15 15 11 10 10 9 13 9 5 5 5 5 7 6 7 8 7 7 5 4 6 11 9 12 12 11 11 11 10 10 10 11 11 11 11 11 11 12 11 11 12 12 13
16 14 10 9 10 11 11 10 7 6 5 5 5 5 5 6 7 6 5 4 3 5 6 9 10 9 9 10 9 9 9 10 10 10 10 10 10 10 10 11 11 12 13
16 13 10 10 12 11 11 10 7 9 7 5 5 5 5 5 5 4 6 6 4 5 3 7 8 7 6 9 8 8 8 9 9 9 9 10 10 10 9 10 11 11 12
13 12 11 11 11 11 10 10 11 8 7 8 8 6 5 4 4 4 4 4 3 5 5 4 3 4 4 6 7 7 7 8 8 8 8 9 9 10 10 10 11 11 11
14 15 11 12 11 12 12 12 11 13 6 9 7 5 5 4 2 2 4 4 4 3 3 4 3 3 2 5 5 4 5 7 7 8 8 9 9 9 10 11 12 12 12
17 14 17 13 12 11 13 13 13 8 5 8 5 4 2 4 3 2 2 4 5 3 3 4 4 3 4 2 4 2 2 5 6 7 8 8 8 10 11 11 12 13 14
16 15 15 16 13 12 12 13 13 13 10 7 10 6 4 5 3 1 3 3 4 3 3 3 4 4 3 3 4 3 2 3 5 7 8 10 10 10 11 12 13 13 14
17 18 18 15 12 11 12 12 11 10 10 11 3 2 3 6 5 2 3 3 3 4 5 3 4 5 5 4 5 5 5 1 4 7 9 9 10 11 11 13 14 15 16
15 18 18 18 14 11 11 14 12 10 9 6 5 4 2 2 3 5 4 3 1 3 4 5 5 4 5 5 3 5 8 5 4 7 9 10 10 11 12 14 15 16 17
10 14 17 18 16 13 13 12 11 10 10 5 4 4 4 5 4 4 3 3 3 4 4 4 5 4 4 4 5 8 9 8 6 7 11 11 12 12 12 14 15 16 17
11 14 16 15 16 17 15 13 12 10 9 8 6 5 3 2 4 3 4 3 4 1 3 3 4 4 4 4 5 7 9 10 8 8 10 13 13 13 13 15 16 17 16
14 18 17 17 18 18 17 16 11 9 10 7 8 6 4 3 2 3 5 6 3 0 1 4 3 5 4 4 6 10 5 12 10 10 8 13 14 13 13 15 17 17 18
13 17 17 16 17 17 17 17 12 14 12 9 9 7 4 3 3 3 3 3 6 4 6 4 3 4 4 4 5 4 4 9 10 11 10 13 14 14 14 15 16 16 18
17 18 18 17 16 17 17 17 13 14 13 8 7 8 5 4 5 3 3 3 2 4 2 2 3 3 4 3 5 5 5 10 9 10 14 12 14 15 15 15 15 17 18
17 19 19 20 19 19 17 16 14 14 16 13 10 10 8 7 5 4 3 2 3 3 4 1 1 2 3 5 3 3 3 4 4 11 14 12 14 16 17 15 14 19 19
17 18 19 19 20 20 19 19 17 15 16 16 14 11 9 7 7 6 4 5 4 3 4 5 2 2 3 4 3 3 4 4 5 8 12 11 13 16 16 14 17 18 18
16 17 18 19 19 19 18 17 16 15 15 15 15 15 12 11 7 5 5 5 4 3 3 4 3 2 2 2 2 1 3 4 3 8 12 12 11 13 15 17 19 18 17
17 18 19 19 18 17 18 17 16 15 15 13 13 14 13 13 12 10 7 7 5 5 3 3 2 3 2 3 2 3 3 3 3 3 6 6 7 10 15 19 17 17 17
17 18 18 17 16 16 14 17 16 15 14 12 11 12 12 13 14 13 8 7 7 5 4 3 3 3 3 2 4 3 4 2 2 2 1 2 3 4 6 11 12 15 20
16 17 18 18 17 13 21 22 18 13 14 13 11 10 10 14 14 16 14 15 13 10 7 5 3 4 5 5 4 4 3 3 3 1 1 3 2 4 5 5 14 19 20
16 17 18 18 18 17 25 25 21 12 13 12 12 11 8 8 11 10 13 14 13 14 8 8 6 6 5 7 6 4 3 4 4 2 3 4 1 4 4 8 18 19 16
15 15 16 18 16 14 24 23 21 11 9 9 10 12 12 9 9 11 9 7 6 8 8 5 6 6 5 5 6 5 5 3 1 1 3 3 1 3 3 9 13 13 15
10 12 13 15 16 15 26 26 21 10 10 10 10 10 11 10 13 13 10 10 8 6 7 8 5 5 8 11 10 6 3 3 1 1 1 2 2 3 3 6 4 12 20
8 8 10 13 15 13 25 28 24 11 12 9 8 8 14 10 18 21 12 10 9 7 7 6 5 8 8 9 9 2 5 2 2 1 1 1 3 3 5 4 6 8 9
Wind_Direction
153 147 152 146 138 133 132 133 131 114 118 117 103 94 91 102 96 83 71 94 109 111 111 109 106 102 97 96 94 89 83 80 77 67 65 61 54 47 44 42 40 35 30
153 150 153 151 131 130 134 136 120 117 115 103 95 88 88 94 93 87 62 63 94 106 113 112 109 105 100 96 94 87 85 82 79 68 56 57 53 46 42 35 28 27 25
154 151 150 150 140 135 133 121 114 107 102 94 88 79 83 92 100 95 85 74 58 62 103 107 106 105 105 100 92 86 79 74 71 68 59 48 46 39 36 34 26 17 14
151 150 142 139 135 140 138 135 130 115 106 102 97 87 80 85 92 109 108 97 74 72 64 94 101 104 107 105 96 85 74 65 60 57 51 47 39 38 28 22 18 15 8
151 145 132 132 137 134 134 134 131 130 124 107 96 82 80 81 90 85 101 91 115 108 88 94 90 78 101 108 97 90 67 60 51 45 41 33 26 21 23 16 10 10 4
142 136 131 129 134 130 133 135 141 132 133 128 100 80 72 69 90 102 110 114 94 112 134 125 90 71 74 94 91 85 60 48 43 42 29 27 17 11 4 7 7 2 357
143 132 136 131 139 141 145 145 141 135 125 128 100 69 36 48 114 126 143 140 141 147 155 143 143 115 103 114 102 67 58 39 28 31 23 16 11 6 0 358 356 352 348
154 151 143 149 150 145 148 151 150 136 123 161 120 112 128 343 324 215 182 150 175 159 191 158 145 141 157 166 148 126 31 33 14 15 9 5 7 358 355 354 350 346 343
154 142 151 147 158 154 158 159 156 159 158 190 176 139 141 190 138 292 246 166 188 167 206 197 163 160 169 151 157 193 205 11 353 357 1 355 355 353 352 348 343 341 337
150 151 153 147 156 152 161 161 161 161 153 171 176 84 87 146 159 158 274 217 211 198 206 213 194 183 178 185 187 167 194 225 320 337 344 349 346 347 347 345 340 338 336
154 159 155 152 161 157 155 163 162 166 166 157 158 141 107 54 107 134 179 217 235 225 209 201 193 186 199 200 192 197 220 226 268 314 326 332 339 343 344 341 337 336 333
155 167 162 161 162 152 159 163 165 164 169 149 143 147 157 164 183 141 137 128 158 234 211 213 198 185 200 196 209 200 210 229 249 291 310 321 332 337 338 337 332 333 332
165 170 171 171 165 158 158 162 169 160 170 169 165 172 173 187 147 130 108 135 138 201 196 229 207 191 194 197 199 207 203 225 242 264 294 313 326 330 332 331 329 330 330
171 169 174 176 170 168 163 170 171 170 169 157 171 174 167 181 138 138 148 134 74 253 165 223 213 196 196 194 201 199 210 227 242 261 287 305 312 316 326 325 327 327 327
172 171 174 173 171 171 167 165 175 175 175 161 169 168 155 168 146 139 138 149 140 155 224 224 181 199 188 185 202 178 196 240 242 260 277 292 301 308 317 321 319 318 322
171 172 173 172 176 173 176 171 176 180 167 164 161 160 160 155 154 147 151 140 113 142 113 172 218 160 174 181 200 190 202 235 244 267 278 286 295 300 306 314 312 313 319
171 174 176 175 176 175 180 177 178 177 173 167 161 165 174 156 162 161 155 142 138 118 120 306 161 135 148 179 190 186 229 242 241 261 271 283 291 301 307 310 312 314 319
171 173 174 178 179 177 176 176 180 177 178 172 165 161 173 169 166 167 168 181 161 160 123 158 209 124 175 198 187 173 231 223 231 250 272 283 291 297 304 307 310 311 317
171 174 173 177 179 177 174 177 180 177 182 176 171 171 172 167 163 165 167 178 161 151 135 125 168 116 200 118 195 213 210 249 250 249 265 275 287 300 301 305 313 315 316
169 172 176 177 176 175 174 179 177 178 180 183 181 172 169 174 176 172 173 176 166 158 139 134 141 167 133 208 136 186 255 229 248 245 246 279 282 295 303 310 315 310 310
170 172 171 173 174 175 175 177 178 177 177 178 176 164 174 181 179 178 167 178 166 157 148 141 183 126 169 170 195 193 208 212 271 232 262 253 270 288 291 301 299 307 315
169 172 174 173 173 176 178 180 179 174 175 172 170 167 174 173 180 175 181 182 179 170 187 150 180 182 189 201 170 180 182 93 288 299 76 273 244 283 286 290 296 316 319
170 177 178 176 178 177 172 177 176 173 166 170 170 166 163 184 169 182 185 180 188 194 177 162 174 194 184 195 160 161 168 146 205 234 83 290 265 289 296 300 309 320 320
173 174 180 179 175 179 173 168 161 152 160 166 166 171 178 170 172 166 169 173 182 198 193 177 192 184 197 187 173 170 162 150 351 26 109 237 313 260 286 291 315 321 322
171 174 175 177 180 185 180 177 169 157 165 166 172 176 174 169 171 159 170 188 193 200 176 172 123 134 142 146 142 119 133 119 241 183 37 125 302 289 300 292 307 319 322
174 165 171 178 179 176 178 178 178 173 174 162 164 175 176 169 178 184 189 178 188 194 150 115 110 111 112 128 138 65 144 139 136 206 251 50 326 17 320 301 315 322 311